Location: *
(45.9500°N, 9.0833°E)
Time: 00:36:06
(UTC+00:00)

Tiros 1 despin weight - Pass Details

Date: 25 June 2021
Orbit: 593 x 642 km, 48.2° (Epoch: 02 August)

Event Time Altitude Azimuth Distance (km) Brightness Sun altitude
Rises 08:43:21 0° 288° (WNW) 2,828 ? 50.2°
Reaches altitude 10° 08:45:45 10° 280° (W) 1,925 ? 50.6°
Maximum altitude 08:49:48 37° 213° (SSW) 931 ? 51.3°
Drops below altitude 10° 08:53:52 10° 146° (SE) 1,929 ? 51.9°
Sets 08:56:17 0° 138° (SE) 2,835 ? 52.3°
